Location: Gro�sch�nbrunn
(49.5760°N, 11.8868°E)
Time: 13:07:33
(UTC+00:00)

Cosmos 2369 Rocket - Pass Details

Date: 18 September 2020
Orbit: 827 x 854 km, 71.0° (Epoch: 21 October)

Event Time Altitude Azimuth Distance (km) Brightness Sun altitude
Exits shadow 22:59:17 19° 38° (NE) 1,888 4.4 -39.0°
Drops below altitude 10° 23:00:53 10° 34° (NE) 2,469 5.1 -39.0°
Sets 23:03:22 0° 31° (NNE) 3,412 6.0 -39.0°
